Retour au catalogue

STARLINK-34111

ActifCommunicationsVLEO
NORAD 64041·PAYLOAD·🇺🇸 United States

Lancé May 16, 2025 depuis Vandenberg Space Force Base

Loading…

Prochains Passages (prochaines 24 heures)

TLE

FraisSource: CelesTrak SupGP

Époque: Sep 14, 2026, 22:54 UTC

1 64041C 25102V   26257.95465278 -.00021296  00000+0 -74113-3 0  2570
2 64041  70.0011 355.4452 0003311 271.3696 222.0083 15.29576475    15

Suivez STARLINK-34111 en temps réel avec AllMySat

Download on the App Store